User: anonymous   Login
Location: Unspecified
(0.0000°N, 0.0000°E)
Time: 05:58:33
(UTC+02:00)
Language:

Cosmos 540 Rocket - Orbit

View from above orbital plane
View from above orbital plane
View from above satellite
View from above satellite

Ground track
Ground track

The orbit data is extracted from the following two-line orbital elements,

1 06324U 72104B   15146.84665638  .00000134  00000-0  47660-4 0  9997
2 06324 074.0783 060.0246 0008458 028.1139 332.0473 14.43187768227038
Epoch (UTC): 26 May 2015 20:19:11
Eccentricity: 0.0008458
inclination: 74.0783°
perigee height: 742 km
apogee height: 754 km
right ascension of ascending node: 60.0246°
argument of perigee: 28.1139°
revolutions per day: 14.43187768
mean anomaly at epoch: 332.0473°
orbit number at epoch: 22703

The dashed part of the orbit path shows where the satellite is in the earth's shadow,  

DLR